This is the latest recevied weather packets stored in our database for station/object W7TTE. If no packets are shown the sender has not sent any weather packets the latest 10 day(s).
| Time | Temp. | Humidity | Pressure | Rain* | Wind** | Luminosity | Snow |
|---|---|---|---|---|---|---|---|
| 1777862420 | 28.89° C | 20% | 1009.7 hPa | 0 mm | - | 0 W/m² | - |
| 1777862117 | 29.44° C | 20% | 1009.8 hPa | 0 mm | - | 0 W/m² | - |
| 1777861813 | 29.44° C | 20% | 1009.4 hPa | 0 mm | - | 0 W/m² | - |
| 1777861508 | 29.44° C | 20% | 1009.5 hPa | 0 mm | - | 0 W/m² | - |
| 1777861205 | 29.44° C | 20% | 1009.2 hPa | 0 mm | - | 1 W/m² | - |
| 1777860903 | 29.44° C | 20% | 1009.5 hPa | 0 mm | - | 1 W/m² | - |
| 1777860600 | 30° C | 20% | 1009.1 hPa | 0 mm | - | 3 W/m² | - |
| 1777860296 | 30° C | 19% | 1009.1 hPa | 0 mm | - | 5 W/m² | - |
| 1777859993 | 30° C | 18% | 1009.3 hPa | 0 mm | - | 8 W/m² | - |
| 1777859689 | 30.56° C | 18% | 1009.2 hPa | 0 mm | - | 12 W/m² | - |
| 1777859385 | 30.56° C | 18% | 1009 hPa | 0 mm | - | 16 W/m² | - |
| 1777859081 | 30.56° C | 18% | 1008.7 hPa | 0 mm | - | 22 W/m² | - |
| 1777858778 | 30.56° C | 18% | 1008.9 hPa | 0 mm | - | 26 W/m² | - |
| 1777858477 | 31.11° C | 18% | 1008.9 hPa | 0 mm | - | 31 W/m² | - |
| 1777858172 | 31.11° C | 16% | 1008.8 hPa | 0 mm | - | 34 W/m² | - |
| 1777857871 | 31.67° C | 16% | 1008.6 hPa | 0 mm | - | 38 W/m² | - |
| 1777857568 | 31.67° C | 17% | 1008.8 hPa | 0 mm | - | 48 W/m² | - |
| 1777857265 | 31.67° C | 17% | 1008.6 hPa | 0 mm | - | 60 W/m² | - |
| 1777856960 | 31.67° C | 18% | 1008.7 hPa | 0 mm | - | 59 W/m² | - |
| 1777856657 | 32.22° C | 18% | 1008.7 hPa | 0 mm | - | 64 W/m² | - |
| 1777856353 | 32.22° C | 18% | 1008.6 hPa | 0 mm | - | 54 W/m² | - |
| 1777856050 | 32.78° C | 18% | 1008.6 hPa | 0 mm | - | 48 W/m² | - |
| 1777855748 | 33.33° C | 18% | 1008.8 hPa | 0 mm | - | 75 W/m² | - |
| 1777855445 | 33.33° C | 18% | 1008.6 hPa | 0 mm | - | 94 W/m² | - |
| 1777855141 | 33.33° C | 18% | 1008.5 hPa | 0 mm | - | 108 W/m² | - |
* Rain latest hour (hover to see other rain measurements)
** Current wind speed in m/s (hover to see current wind gust speed)